Location: Argonnex
(45.9500°N, 6.1333°E)
Time: 17:16:07
(UTC+00:00)

Cosmos 2251 Rocket - Visible Passes

Search period start: 07 October 2024 00:00
Search period end: 17 October 2024 00:00
Orbit: 763 x 788 km, 74.0° (Epoch: 07 October)

Date Brightness Start Highest point End Pass type
(mag) Time Alt. Az. Time Alt. Az. Time Alt. Az.
13 Oct 6.3 04:47:44 10° NNE 04:49:54 12° NE 04:52:05 10° ENE visible
15 Oct 5.5 05:18:47 10° N 05:23:22 29° ENE 05:27:57 10° ESE visible
16 Oct 6.0 04:44:26 10° N 04:48:18 20° NE 04:52:10 10° E visible
